Regional Weather Roundup
Issued by NWS

Home | Current Version | Previous Version | Text Only | Print | Product List | Glossary Off
Versions: 1 2 3 4 5 6 7 8 9 10 11 12 13 14 15 16 17 18 19 20 21 22 23 24 25 26 27 28 29 30 31 32 33 34 35 36 37 38 39 40 41 42 43 44 45 46 47 48 49 50

000
ASUS45 KBOI 010010
RWRID

IDAHO REGIONAL WEATHER ROUNDUP
NATIONAL WEATHER SERVICE BOISE ID
600 PM MDT SAT APR 30 2016

NOTE: "FAIR" INDICATES FEW OR NO CLOUDS BELOW 12000 FEET
WITH NO SIGNIFICANT WEATHER AND/OR OBSTRUCTIONS TO VISIBILITY

IDZ012-014-010100-
SOUTHWEST IDAHO


CITY           SKY/WX    TMP DP  RH WIND       PRES   REMARKS
BOISE          SUNNY     67  33  28 NW24G33   29.99S
CALDWELL       SUNNY     67  36  31 NW17G25   30.02S
MOUNTAIN HOME  CLOUDY    66  35  31 NW24G31   29.99S
$$

IDZ016-017-010100-
SOUTHCENTRAL IDAHO


CITY           SKY/WX    TMP DP  RH WIND       PRES   REMARKS
BURLEY         CLOUDY    57  38  48 N5        30.02S
JEROME         CLOUDY    56  39  53 N20G28    30.05R
TWIN FALLS     SUNNY     58  34  40 VRB3      30.04S
$$

IDZ019>023-010100-
SOUTHEAST IDAHO


CITY           SKY/WX    TMP DP  RH WIND       PRES   REMARKS
IDAHO FALLS    CLOUDY    55  33  43 N13       30.02R
POCATELLO      PTSUNNY   56  37  49 CALM      30.03R
REXBURG        CLOUDY    59  30  33 N14       30.01R
$$

IDZ006-010-011-018-031-032-010100-
CENTRAL IDAHO MOUNTAINS


CITY           SKY/WX    TMP DP  RH WIND       PRES   REMARKS
MCCALL         MOSUNNY   51  30  44 NW7       30.09F
HAILEY         PTSUNNY   52  39  62 SE10      30.07R
STANLEY          N/A     48  28  46 MISG      30.10R
SALMON         CLOUDY    54  36  50 N15       30.13R
CHALLIS        CLOUDY    52  30  43 N10       30.10R
$$

IDZ002-004-006-007-026-010100-
NORTHERN IDAHO


CITY           SKY/WX    TMP DP  RH WIND       PRES   REMARKS
LEWISTON       PTSUNNY   64  43  46 N3        30.21S
LOWELL           N/A     63  44  50 S8G18     30.15F
COEUR D`ALENE  PTSUNNY   55  43  62 S8        30.20R
MULLAN PASS    CLOUDY    43  31  62 CALM      30.25R
$$



USA.gov is the U.S. government's official web portal to all federal, state and local government web resources and services.